Weather History for KCGI - March, 2012

Change the Weather History Date:

Thursday, March 1, 2012

  Actual Average Record
Temperature  
Mean Temperature 49 °F 42 °F  
Max Temperature 65 °F 53 °F 72 °F (1976)
Min Temperature 33 °F 32 °F 13 °F (1980)
Degree Days  
Heating Degree Days 16 23  
Month to date heating degree days 16 23  
Since 1 July heating degree days 2935 3520  
Cooling Degree Days 0 0  
Month to date cooling degree days 0 0  
Year to date cooling degree days 0 0  
Moisture  
Dew Point 34 °F    
Average Humidity 56    
Maximum Humidity 82    
Minimum Humidity 30    
Precipitation  
Precipitation 0.00 in 0.12 in 1.25 in (1972)
Month to date precipitation 0.00 0.12  
Year to date precipitation 4.88 7.00  
Sea Level Pressure  
Sea Level Pressure 29.83 in    
Wind  
Wind Speed 6 mph (South)    
Max Wind Speed 15 mph    
Max Gust Speed 22 mph    
Visibility 10 miles    
Events      
T = Trace of Precipitation, MM = Missing Value Source: NWS Daily Summary

Daily Weather History Graph

Daily Weather History Graph

Search for Another Location

Airport or City:

Trip Planner

Search our weather history database for the weather conditions in past years. The results will help you decide how hot, cold, wet, or windy it might be!

Date:

Astronomy

Mar. 01, 2012 Rise Set
Actual Time 6:28 AM CST 5:52 PM CST
Civil Twilight 6:02 AM CST 6:18 PM CST
Nautical Twilight 5:32 AM CST 6:49 PM CST
Astronomical Twilight 5:02 AM CST 7:19 PM CST
Moon 11:18 AM CST (3/1) 1:21 AM CST (3/1)
Length of Visible Light 12h 16m
Length of Day
11h 24m
First Quarter, 57% of the Moon is Illuminated
Mar 1
First Quarter
Mar 8
Full
Mar 14
Last Quarter
Mar 22
New
Mar 30
First Quarter

Hourly Weather History & Observations

Time (CST) Temp. Windchill Dew Point Humidity Pressure Visibility Wind Dir Wind Speed Gust Speed Precip Events Conditions
12:53 AM 44.1 °F 40.1 °F 33.1 °F 65% 29.91 in 10.0 mi SW 6.9 mph - N/A   Clear
1:53 AM 42.1 °F 38.4 °F 33.1 °F 70% 29.92 in 10.0 mi West 5.8 mph - N/A   Clear
2:53 AM 39.9 °F - 32.0 °F 73% 29.92 in 10.0 mi Calm Calm - N/A   Clear
3:53 AM 39.0 °F - 32.0 °F 76% 29.91 in 10.0 mi Calm Calm - N/A   Clear
4:53 AM 36.0 °F - 30.0 °F 79% 29.93 in 10.0 mi Calm Calm - N/A   Clear
5:53 AM 36.0 °F - 30.9 °F 82% 29.93 in 10.0 mi Calm Calm - N/A   Clear
6:53 AM 36.0 °F - 30.9 °F 82% 29.94 in 10.0 mi Calm Calm - N/A   Clear
7:53 AM 41.0 °F - 35.1 °F 79% 29.95 in 10.0 mi Calm Calm - N/A   Clear
8:53 AM 50.0 °F - 36.0 °F 59% 29.95 in 10.0 mi Calm Calm - N/A   Clear
9:53 AM 55.0 °F - 33.1 °F 43% 29.94 in 10.0 mi Calm Calm - N/A   Clear
10:53 AM 59.0 °F - 33.1 °F 38% 29.94 in 10.0 mi SSW 6.9 mph - N/A   Clear
11:53 AM 61.0 °F - 30.9 °F 32% 29.91 in 10.0 mi South 3.5 mph - N/A   Clear
12:53 PM 63.0 °F - 33.1 °F 33% 29.86 in 10.0 mi South 6.9 mph - N/A   Clear
1:53 PM 64.9 °F - 35.1 °F 33% 29.83 in 10.0 mi South 9.2 mph - N/A   Clear
2:53 PM 64.9 °F - 35.1 °F 33% 29.80 in 10.0 mi South 13.8 mph - N/A   Clear
3:53 PM 64.9 °F - 33.1 °F 31% 29.78 in 10.0 mi South 11.5 mph - N/A   Clear
4:53 PM 63.0 °F - 30.9 °F 30% 29.74 in 10.0 mi SSE 11.5 mph 19.6 mph N/A   Clear
5:53 PM 60.1 °F - 34.0 °F 38% 29.71 in 10.0 mi SSE 6.9 mph - N/A   Clear
6:53 PM 57.0 °F - 37.0 °F 47% 29.70 in 10.0 mi SE 9.2 mph - N/A   Clear
7:53 PM 52.0 °F - 37.9 °F 59% 29.70 in 10.0 mi SSE 8.1 mph - N/A   Clear
8:53 PM 55.0 °F - 37.0 °F 51% 29.69 in 10.0 mi SE 9.2 mph - N/A   Clear
9:53 PM 54.0 °F - 37.0 °F 53% 29.68 in 10.0 mi SSE 10.4 mph - N/A   Clear
10:53 PM 54.0 °F - 36.0 °F 51% 29.65 in 10.0 mi SSE 8.1 mph - N/A   Clear
11:53 PM 55.0 °F - 37.0 °F 51% 29.64 in 10.0 mi SSE 10.4 mph - N/A   Clear